TimeCST,TemperatureF,Dew PointF,Humidity,Sea Level PressureIn,VisibilityMPH,Wind Direction,Wind SpeedMPH,Gust SpeedMPH,PrecipitationIn,Events,Conditions,WindDirDegrees,DateUTC
12:13 AM,69.8,68.0,94,29.96,3.0,SE,5.8,-,0.00,Rain,Light Rain,130,2013-11-17 06:13:00
12:16 AM,69.8,68.0,94,29.96,2.5,ESE,5.8,-,0.00,Rain,Light Rain,120,2013-11-17 06:16:00
12:30 AM,69.8,68.0,94,29.95,5.0,ESE,5.8,-,0.00,,Overcast,110,2013-11-17 06:30:00
12:53 AM,70.0,69.1,97,29.95,3.0,ESE,4.6,-,0.00,Rain,Light Rain,110,2013-11-17 06:53:00
1:26 AM,69.8,69.8,100,29.94,2.0,ESE,10.4,-,0.01,Rain,Light Rain,110,2013-11-17 07:26:00
1:37 AM,69.8,69.8,100,29.92,6.0,ESE,10.4,-,0.01,,Overcast,110,2013-11-17 07:37:00
1:53 AM,70.0,69.1,97,29.93,10.0,SE,5.8,-,0.01,,Overcast,130,2013-11-17 07:53:00
2:53 AM,70.0,69.1,97,29.90,10.0,SE,9.2,-,0.00,Rain,Light Rain,130,2013-11-17 08:53:00
3:53 AM,70.0,69.1,97,29.91,10.0,South,5.8,-,0.00,,Overcast,170,2013-11-17 09:53:00
4:53 AM,70.0,69.1,97,29.91,8.0,SE,9.2,-,N/A,,Overcast,140,2013-11-17 10:53:00
5:53 AM,70.0,69.1,97,29.91,8.0,SE,8.1,-,0.00,,Overcast,140,2013-11-17 11:53:00
6:00 AM,69.8,69.8,100,29.92,8.0,SE,9.2,-,N/A,,Overcast,140,2013-11-17 12:00:00
6:53 AM,70.0,69.1,97,29.92,8.0,SSE,12.7,-,N/A,,Overcast,150,2013-11-17 12:53:00
7:00 AM,69.8,69.8,100,29.93,8.0,SSE,11.5,-,N/A,,Overcast,160,2013-11-17 13:00:00
7:53 AM,71.1,70.0,96,29.94,5.0,SSE,10.4,-,N/A,,Overcast,160,2013-11-17 13:53:00
8:53 AM,73.0,71.1,93,29.95,10.0,South,12.7,-,N/A,,Overcast,180,2013-11-17 14:53:00
9:53 AM,75.9,72.0,87,29.95,10.0,South,12.7,-,N/A,,Overcast,180,2013-11-17 15:53:00
10:53 AM,77.0,72.0,84,29.94,10.0,South,15.0,21.9,N/A,,Overcast,190,2013-11-17 16:53:00
11:00 AM,78.8,71.6,78,29.94,10.0,South,12.7,23.0,N/A,,Overcast,190,2013-11-17 17:00:00
11:53 AM,80.1,72.0,76,29.91,10.0,South,18.4,23.0,N/A,,Mostly Cloudy,190,2013-11-17 17:53:00
12:53 PM,78.1,73.0,84,29.90,10.0,South,12.7,-,0.00,,Mostly Cloudy,190,2013-11-17 18:53:00
1:53 PM,80.1,73.0,79,29.88,10.0,SSW,11.5,18.4,0.00,,Overcast,210,2013-11-17 19:53:00
2:21 PM,80.6,71.6,74,29.88,10.0,SW,12.7,-,N/A,,Overcast,220,2013-11-17 20:21:00
2:30 PM,80.6,71.6,74,29.87,10.0,SSW,16.1,21.9,N/A,,Overcast,210,2013-11-17 20:30:00
2:43 PM,80.6,71.6,74,29.87,10.0,SSW,17.3,-,N/A,,Overcast,210,2013-11-17 20:43:00
2:53 PM,80.1,72.0,76,29.87,10.0,South,12.7,-,N/A,,Mostly Cloudy,190,2013-11-17 20:53:00
3:28 PM,82.4,71.6,70,29.87,10.0,South,12.7,20.7,N/A,,Mostly Cloudy,190,2013-11-17 21:28:00
3:53 PM,81.0,71.1,72,29.87,10.0,SSW,16.1,24.2,N/A,,Mostly Cloudy,210,2013-11-17 21:53:00
4:53 PM,79.0,71.1,77,29.90,10.0,SSW,13.8,-,N/A,,Mostly Cloudy,210,2013-11-17 22:53:00
5:53 PM,78.1,71.1,79,29.91,10.0,SSW,11.5,-,N/A,,Partly Cloudy,200,2013-11-17 23:53:00
6:53 PM,77.0,72.0,84,29.94,10.0,SW,10.4,-,N/A,,Partly Cloudy,220,2013-11-18 00:53:00
7:53 PM,75.9,72.0,87,29.95,10.0,SSW,6.9,-,N/A,,Overcast,200,2013-11-18 01:53:00
8:53 PM,75.0,73.0,94,29.96,10.0,SW,11.5,-,N/A,,Scattered Clouds,220,2013-11-18 02:53:00
9:04 PM,75.2,73.4,94,29.96,10.0,SSW,11.5,-,N/A,,Mostly Cloudy,210,2013-11-18 03:04:00
9:53 PM,75.0,73.0,94,29.96,10.0,SW,11.5,-,N/A,,Overcast,230,2013-11-18 03:53:00
10:27 PM,75.2,71.6,89,29.96,10.0,SSW,10.4,-,N/A,,Overcast,210,2013-11-18 04:27:00
10:53 PM,75.9,73.0,91,29.97,10.0,SW,9.2,-,N/A,,Overcast,220,2013-11-18 04:53:00
11:53 PM,75.0,72.0,90,29.96,10.0,South,4.6,-,N/A,,Mostly Cloudy,180,2013-11-18 05:53:00